"America/Chicago Time","Lifetime Energy (kWh)","Power (W)","AC Volts RMS (V) ","AC Amps RMS (mA)","Grid Frequency (Hz)","Inverter Temperature (C)"
"07/07/12 10:46:14","429618.2391","136.8","216.9","637","60.0","36"
"07/07/12 10:51:13","429618.2498","138.7","217.23","645","60.03","36"
"07/07/12 10:56:14","429618.2608","141.1","216.81","653","60.03","36"
"07/07/12 11:01:15","429618.2718","142.2","217.01","661","60.03","37"
"07/07/12 11:06:13","429618.2829","143.6","216.36","669","60.0","37"
"07/07/12 11:11:14","429618.2942","145.3","216.91","669","60.0","37"
"07/07/12 11:16:14","429618.3054","145.4","217.9","667","60.03","37"
"07/07/12 11:21:14","429618.3168","145.3","217.72","672","60.03","38"
"07/07/12 11:26:13","429618.3281","147.4","217.72","679","60.0","38"
"07/07/12 11:31:14","429618.3397","148.7","217.6","684","60.0","38"
"07/07/12 11:36:14","429618.3514","148.9","216.88","687","60.03","38"
"07/07/12 11:41:13","429618.363","149.8","217.01","688","60.0","38"
"07/07/12 11:46:13","429618.3746","150.6","217.13","695","60.03","38"
"07/07/12 11:51:13","429618.3864","151.9","217.52","703","60.03","38"
"07/07/12 11:56:14","429618.3983","152.3","217.06","706","60.03","38"
"07/07/12 12:01:15","429618.4103","152.9","216.38","706","60.03","38"
"07/07/12 12:06:13","429618.4221","153.4","216.9","710","60.03","38"
"07/07/12 12:11:15","429618.4342","153.8","217.06","708","60.03","38"
"07/07/12 12:16:13","429618.4461","154.6","216.9","714","60.0","38"
"07/07/12 12:21:13","429618.4581","152.9","217.65","704","60.0","38"
"07/07/12 12:26:14","429618.4701","153.4","217.89","703","60.0","38"
"07/07/12 12:31:14","429618.4822","155.8","217.64","716","60.0","38"
"07/07/12 12:36:13","429618.4942","155.9","217.69","714","60.03","38"
"07/07/12 12:41:14","429618.5064","155.5","218.18","715","60.0","38"
"07/07/12 12:46:14","429618.5185","155.6","217.33","712","60.03","38"
"07/07/12 12:51:15","429618.5306","154.3","216.54","716","60.03","38"
"07/07/12 12:56:13","429618.5426","153.1","216.79","706","60.07","39"
"07/07/12 13:01:15","429618.5545","152.5","216.51","706","60.03","39"
"07/07/12 13:06:14","429618.5664","153.3","217.84","708","60.03","39"
"07/07/12 13:11:15","429618.5784","153.0","216.92","705","60.03","39"
"07/07/12 13:16:13","429618.5902","151.8","216.71","701","60.0","39"
"07/07/12 13:21:13","429618.602","151.9","217.05","701","60.03","39"
"07/07/12 13:26:15","429618.6139","150.6","216.72","698","60.03","39"
"07/07/12 13:31:15","429618.6257","149.8","217.06","693","60.0","39"
"07/07/12 13:36:13","429618.6372","149.7","216.37","694","60.0","40"
"07/07/12 13:41:14","429618.6489","150.0","217.14","692","60.03","40"
"07/07/12 13:46:15","429618.6605","148.6","216.56","687","60.0","40"
"07/07/12 13:51:13","429618.672","146.4","216.33","679","60.03","40"
"07/07/12 13:56:14","429618.6834","146.5","216.79","676","60.03","40"
"07/07/12 14:01:14","429618.6948","144.8","217.39","671","60.07","40"
"07/07/12 14:06:15","429618.7061","144.3","216.82","671","60.03","40"
"07/07/12 14:11:13","429618.7172","143.3","216.29","663","60.03","40"
"07/07/12 14:16:15","429618.7283","141.5","216.68","658","60.0","40"
"07/07/12 14:21:13","429618.7392","140.5","216.52","656","60.0","40"
"07/07/12 14:26:14","429618.7501","139.6","216.51","648","60.0","40"
"07/07/12 14:31:15","429618.7609","137.0","216.87","635","60.0","40"
"07/07/12 14:36:13","429618.7715","136.0","217.14","631","60.03","40"
"07/07/12 14:41:13","429618.782","134.5","217.67","623","60.0","40"
"07/07/12 14:46:14","429618.7923","131.6","216.86","613","60.0","40"
"07/07/12 14:51:14","429618.8026","129.9","215.92","609","60.0","40"
"07/07/12 14:56:15","429618.8126","127.9","216.96","601","60.03","40"
"07/07/12 15:01:14","429618.8225","126.4","216.74","597","60.03","40"
"07/07/12 15:06:13","429618.8322","124.0","216.48","585","60.0","40"
"07/07/12 15:11:14","429618.8418","122.9","216.61","576","60.0","40"
"07/07/12 15:16:14","429618.8511","119.0","216.42","562","60.03","41"
"07/07/12 15:21:14","429618.8603","117.0","215.54","558","60.03","41"
"07/07/12 15:26:15","429618.8694","115.9","216.09","545","60.0","40"
"07/07/12 15:31:14","429618.8783","113.2","214.98","544","60.03","41"
"07/07/12 15:36:14","429618.8871","111.6","214.82","530","60.03","41"
"07/07/12 15:41:15","429618.8957","108.6","215.3","523","60.0","41"
"07/07/12 15:46:14","429618.904","106.4","214.66","508","60.0","41"
"07/07/12 15:51:14","429618.9123","104.5","215.63","502","60.03","40"
"07/07/12 15:56:14","429618.9202","101.6","215.92","489","60.03","40"
"07/07/12 16:01:15","429618.9281","98.6","216.17","474","60.03","40"
"07/07/12 16:06:13","429618.9356","96.5","215.77","465","60.07","40"
"07/07/12 16:11:14","429618.943","93.7","215.7","453","60.07","40"
"07/07/12 16:16:15","429618.9503","91.4","215.12","445","60.03","40"
"07/07/12 16:21:13","429618.9573","89.0","214.97","436","60.03","39"
"07/07/12 16:26:15","429618.9641","86.6","214.76","422","60.0","39"
"07/07/12 16:31:13","429618.9707","83.8","214.22","413","60.03","39"
"07/07/12 16:36:14","429618.9771","80.9","214.72","401","60.0","39"
"07/07/12 16:41:14","429618.9832","78.0","214.66","385","60.07","39"
"07/07/12 16:46:14","429618.9892","75.5","214.31","378","60.03","39"
"07/07/12 16:51:13","429618.9949","72.4","213.87","366","60.03","38"
"07/07/12 16:56:14","429619.0004","69.8","213.85","353","60.0","38"
"07/07/12 17:01:14","429619.0058","66.5","214.39","337","60.0","38"
"07/07/12 17:06:14","429619.0108","63.3","215.14","326","60.03","38"
"07/07/12 17:11:15","429619.0155","41.2","214.5","129","60.03","37"
"07/07/12 17:16:13","429619.0194","48.4","213.58","261","59.96","37"
"07/07/12 17:21:14","429619.0233","43.2","213.9","280","60.03","37"
"07/07/12 17:26:14","429619.0271","56.0","214.78","139","60.03","37"
"07/07/12 17:31:15","429619.031","54.6","213.76","260","60.0","37"
"07/07/12 17:36:13","429619.0345","51.3","213.11","359","60.03","36"
"07/07/12 17:41:13","429619.0379","47.6","213.73","319","60.03","36"
"07/07/12 17:46:13","429619.0409","32.8","213.6","209","60.03","36"
"07/07/12 17:51:14","429619.0438","30.4","213.52","138","60.07","36"
"07/07/12 17:56:14","429619.0464","27.7","213.52","81","60.03","35"
"07/07/12 18:01:13","429619.0487","25.6","213.46","176","60.0","35"
"07/07/12 18:06:13","429619.0508","14.1","213.92","228","60.03","34"
"07/07/12 18:11:14","429619.0528","17.0","214.13","216","60.03","34"
"07/07/12 18:16:13","429619.0544","11.3","213.6","32","60.03","34"
"07/07/12 18:21:13","429619.0559","13.9","213.99","40","60.07","33"
"07/07/12 18:26:15","429619.0571","15.1","214.11","9","60.03","33"
"07/07/12 18:31:14","429619.0581","15.7","213.33","99","60.03","33"
"07/07/12 18:36:13","429619.059","0.0","213.36","60","60.03","32"
"07/07/12 18:41:14","429619.0598","1.4","213.47","0","60.07","32"
"07/07/12 18:46:14","429619.0603","0.0","213.41","4","60.07","32"
"07/07/12 18:51:13","429619.0609","14.0","213.07","9","60.03","31"
"07/07/12 18:56:15","429619.0613","10.4","212.96","71","60.07","31"
"07/07/12 19:01:14","429619.0617","0.0","212.79","0","60.03","30"
"07/07/12 19:06:14","429619.062","0.0","213.21","0","60.03","30"
"07/07/12 19:11:15","429619.0624","0.0","213.83","0","60.03","30"
"07/07/12 19:16:13","429619.0627","0.0","213.5","0","60.03","29"
"07/07/12 19:21:15","429619.063","0.0","213.24","0","60.03","29"
"07/07/12 19:26:13","429619.0633","0.0","213.45","0","60.03","29"
"07/07/12 19:31:13","429619.0635","0.0","213.3","0","60.03","28"
"07/07/12 19:36:15","429619.0638","5.9","213.0","222","60.03","28"
"07/07/12 19:41:13","429619.0641","0.0","213.13","0","60.03","28"
"07/08/12 06:31:14","429619.0659","11.3","213.15","1","60.0","19"
"07/08/12 06:36:14","429619.0662","0.0","213.42","0","60.03","19"
"07/08/12 06:41:14","429619.0665","0.0","213.79","0","60.03","19"
"07/08/12 06:46:14","429619.0669","0.0","213.62","0","60.0","19"
"07/08/12 06:51:14","429619.0674","0.0","212.98","0","60.03","19"
"07/08/12 06:56:14","429619.0679","6.4","212.61","263","60.03","19"
"07/08/12 07:01:14","429619.0685","0.0","212.88","0","60.0","20"
"07/08/12 07:06:13","429619.0692","6.4","213.44","212","60.03","20"
"07/08/12 07:11:13","429619.0706","33.4","213.84","247","60.0","20"
"07/08/12 07:16:14","429619.073","36.4","213.7","193","60.0","21"
"07/08/12 07:21:14","429619.0756","30.7","214.09","120","60.03","22"
"07/08/12 07:26:15","429619.0785","43.9","213.76","304","60.0","22"
"07/08/12 07:31:13","429619.0816","37.6","214.02","115","60.03","23"
"07/08/12 07:36:14","429619.085","40.8","215.43","230","60.0","23"
"07/08/12 07:41:14","429619.0886","39.9","215.07","400","60.0","24"
"07/08/12 07:46:14","429619.0924","42.7","214.77","405","60.03","24"
"07/08/12 07:51:15","429619.0963","39.8","215.97","204","60.03","25"
"07/08/12 07:56:13","429619.1001","47.6","216.1","208","60.03","25"
"07/08/12 08:01:14","429619.1039","41.5","215.85","278","60.03","26"
"07/08/12 08:06:15","429619.1079","58.1","215.42","397","59.96","26"
"07/08/12 08:11:14","429619.1121","53.6","216.25","371","60.0","27"
"07/08/12 08:16:14","429619.1165","61.1","215.6","388","60.03","28"
"07/08/12 08:21:37","429619.1215","73.9","215.46","370","60.0","28"
"07/08/12 08:26:14","429619.1268","76.9","215.07","381","60.03","28"
"07/08/12 08:31:14","429619.133","80.0","215.5","395","60.03","28"
"07/08/12 08:36:13","429619.1393","82.9","215.44","409","60.03","28"
"07/08/12 08:41:14","429619.1459","85.9","216.2","420","60.03","29"
"07/08/12 08:46:15","429619.1527","88.6","215.89","429","60.0","29"
"07/08/12 08:51:14","429619.1596","91.3","215.99","439","60.0","30"
"07/08/12 08:56:14","429619.1668","93.7","215.38","455","60.0","30"
"07/08/12 09:01:14","429619.1742","95.8","214.85","463","60.0","31"
"07/08/12 09:06:15","429619.1817","98.0","215.22","476","60.03","31"
"07/08/12 09:11:14","429619.1894","100.4","215.43","481","60.03","32"
"07/08/12 09:16:14","429619.1972","101.9","215.55","489","60.03","32"
"07/08/12 09:21:14","429619.2053","104.4","215.85","501","60.0","33"
"07/08/12 09:26:14","429619.2135","106.0","216.07","508","60.03","34"
"07/08/12 09:31:15","429619.2218","107.7","215.77","517","60.07","35"
"07/08/12 09:36:13","429619.2303","110.4","216.25","523","60.0","36"
"07/08/12 09:41:15","429619.239","112.8","215.88","535","60.03","36"
"07/08/12 09:46:14","429619.2478","114.2","216.22","539","60.03","37"
"07/08/12 09:51:15","429619.2568","116.0","214.97","552","60.0","38"
"07/08/12 09:56:14","429619.2658","117.7","216.0","555","60.03","38"
"07/08/12 10:01:14","429619.2751","121.3","215.8","574","60.0","39"
"07/08/12 10:06:14","429619.2846","123.5","216.93","579","59.96","39"
"07/08/12 10:11:14","429619.2943","124.5","216.21","591","60.0","40"
"07/08/12 10:16:14","429619.3042","129.0","216.86","600","60.03","40"
"07/08/12 10:21:15","429619.3143","129.4","216.89","603","60.0","40"
"07/08/12 10:26:15","429619.3244","129.9","217.89","603","60.0","41"
"07/08/12 10:31:14","429619.3345","131.6","217.54","614","60.0","41"
"07/08/12 10:36:14","429619.3449","135.0","216.69","629","60.03","41"
"07/08/12 10:41:15","429619.3556","137.9","217.86","637","60.03","41"
"07/08/12 10:46:15","429619.3663","138.7","216.75","648","60.0","40"
"07/08/12 10:51:15","429619.3772","140.4","217.22","655","60.03","40"
"07/08/12 10:56:15","429619.3881","141.3","217.3","653","60.0","40"
"07/08/12 11:01:14","429619.3992","142.7","217.94","658","60.0","40"
"07/08/12 11:06:14","429619.4103","143.2","217.53","661","60.03","39"
"07/08/12 11:11:13","429619.4215","144.2","216.74","668","60.03","40"
"07/08/12 11:16:15","429619.4328","145.3","217.43","669","60.0","40"
"07/08/12 11:21:13","429619.4441","146.9","218.03","674","60.0","40"
"07/08/12 11:26:14","429619.4555","147.1","218.19","679","60.0","40"
"07/08/12 11:31:14","429619.467","146.7","218.28","676","60.0","40"
"07/08/12 11:36:14","429619.4784","148.3","217.31","683","60.0","40"
"07/08/12 11:41:15","429619.4901","148.9","217.29","689","60.03","40"
"07/08/12 11:46:14","429619.5016","150.0","217.69","688","60.0","40"
"07/08/12 11:51:15","429619.5134","149.6","217.53","691","60.03","41"
"07/08/12 11:56:13","429619.5249","149.3","216.9","694","60.03","41"
"07/08/12 12:01:14","429619.5366","150.7","216.71","697","60.0","41"
"07/08/12 12:06:15","429619.5484","151.5","217.0","697","60.0","41"
"07/08/12 12:11:14","429619.5602","152.2","217.43","701","60.03","41"
"07/08/12 12:16:15","429619.572","151.6","218.02","700","60.0","41"
"07/08/12 12:21:13","429619.5838","152.1","217.22","700","60.0","41"
"07/08/12 12:26:14","429619.5957","152.4","217.42","703","60.0","41"
"07/08/12 12:31:15","429619.6076","151.6","217.52","700","60.0","41"
"07/08/12 12:36:14","429619.6193","151.5","216.64","703","60.0","41"
"07/08/12 12:41:15","429619.6312","152.3","217.46","703","60.03","40"
"07/08/12 12:46:13","429619.6431","154.1","217.14","706","60.0","40"
"07/08/12 12:51:14","429619.6551","152.9","216.57","708","60.0","40"
"07/08/12 12:56:14","429619.6671","154.1","216.62","711","60.0","39"
"07/08/12 13:01:15","429619.679","153.4","217.93","707","60.0","39"
"07/08/12 13:06:15","429619.6909","152.3","217.66","701","60.0","39"
"07/08/12 13:11:15","429619.7028","151.7","217.7","697","60.03","39"
"07/08/12 13:16:13","429619.7145","151.5","217.52","698","60.03","39"
"07/08/12 13:21:15","429619.7263","150.4","217.42","694","60.0","39"
"07/08/12 13:26:15","429619.738","150.3","216.86","694","60.0","39"
"07/08/12 13:31:14","429619.7496","149.6","216.83","694","60.03","39"
"07/08/12 13:36:15","429619.7612","147.6","217.01","685","60.07","39"
"07/08/12 13:41:14","429619.7727","146.4","217.48","678","60.0","40"
"07/08/12 13:46:15","429619.784","145.1","217.35","674","60.0","40"
"07/08/12 13:51:15","429619.7954","144.7","217.27","666","60.0","41"
"07/08/12 13:56:14","429619.8065","144.2","217.85","663","60.03","41"
"07/08/12 14:01:15","429619.8178","143.9","217.13","666","60.03","41"
"07/08/12 14:06:15","429619.829","142.5","216.77","661","60.03","41"
"07/08/12 14:11:14","429619.84","142.1","217.01","656","60.03","40"
"07/08/12 14:16:15","429619.851","140.0","217.59","649","60.03","41"
"07/08/12 14:21:13","429619.8618","138.2","216.69","647","60.0","41"
"07/08/12 14:26:14","429619.8726","138.4","216.8","640","60.03","41"
"07/08/12 14:31:15","429619.8833","135.7","217.08","633","60.0","41"
"07/08/12 14:36:14","429619.8938","135.0","217.95","630","60.03","41"
"07/08/12 14:41:14","429619.9043","134.2","218.25","625","60.0","41"
"07/08/12 14:46:15","429619.9146","131.8","216.75","619","60.0","41"
"07/08/12 14:51:15","429619.9249","130.6","216.32","610","60.0","41"
"07/08/12 14:56:15","429619.935","128.8","216.59","604","60.03","40"
"07/08/12 15:01:14","429619.9449","127.6","216.42","598","60.0","40"
"07/08/12 15:06:14","429619.9548","126.0","217.51","588","60.03","40"
"07/08/12 15:11:15","429619.9645","123.1","216.53","580","60.03","40"
"07/08/12 15:16:15","429619.974","121.5","216.48","566","60.03","40"
"07/08/12 15:21:15","429619.9834","119.1","216.78","561","60.03","39"
"07/08/12 15:26:14","429619.9925","116.9","216.29","552","60.07","39"
"07/08/12 15:31:14","429620.0015","114.8","216.72","545","60.03","39"
"07/08/12 15:36:14","429620.0103","112.5","216.51","534","60.03","39"
"07/08/12 15:41:13","429620.019","110.3","216.74","525","60.03","38"
"07/08/12 15:46:14","429620.0276","107.9","216.43","513","60.03","38"
"07/08/12 15:51:13","429620.0359","105.7","217.38","504","60.03","38"
"07/08/12 15:56:15","429620.0441","103.3","217.2","493","60.03","38"
"07/08/12 16:01:15","429620.0521","101.4","217.26","482","60.0","37"
"07/08/12 16:06:15","429620.0598","97.9","216.84","470","60.0","37"
"07/08/12 16:11:15","429620.0673","95.8","216.33","460","60.0","37"
"07/08/12 16:16:15","429620.0747","93.3","216.52","451","60.03","37"
"07/08/12 16:21:14","429620.0818","90.7","216.67","440","60.03","36"
"07/08/12 16:26:15","429620.0887","87.8","215.48","429","60.03","36"
"07/08/12 16:31:14","429620.0954","84.9","215.07","415","60.03","36"
"07/08/12 16:36:14","429620.1019","81.9","215.23","406","60.03","36"
"07/08/12 16:41:14","429620.1082","79.3","214.69","390","60.0","35"
"07/08/12 16:46:14","429620.1142","76.3","214.95","382","60.03","35"
"07/08/12 16:51:15","429620.1201","73.1","214.89","364","60.0","35"
"07/08/12 16:56:15","429620.1256","70.3","214.54","356","60.03","34"
"07/08/12 17:01:15","429620.131","67.4","215.09","342","60.0","34"
"07/08/12 17:06:14","429620.136","64.5","214.63","330","60.0","34"
"07/08/12 17:11:15","429620.141","61.2","215.01","314","60.03","33"
"07/08/12 17:16:14","429620.145","58.0","215.28","322","60.03","33"
"07/08/12 17:21:15","429620.1489","57.5","215.21","208","60.0","32"
"07/08/12 17:26:14","429620.1528","49.6","215.05","305","60.0","32"
"07/08/12 17:31:14","429620.1566","40.3","214.86","388","60.03","32"
"07/08/12 17:36:13","429620.1602","43.0","214.58","130","60.03","32"
"07/08/12 17:41:14","429620.1638","45.4","214.59","402","60.07","32"
"07/08/12 17:46:15","429620.1673","36.5","214.77","176","60.03","31"
"07/08/12 17:51:14","429620.1703","41.5","214.27","277","60.07","31"
"07/08/12 17:56:15","429620.1729","36.2","213.69","275","60.0","31"
"07/08/12 18:01:15","429620.1753","33.5","214.33","260","60.03","31"
"07/08/12 18:06:14","429620.1775","29.8","214.86","49","60.0","30"
"07/08/12 18:11:14","429620.1795","13.5","213.47","214","60.03","30"
"07/08/12 18:16:15","429620.1812","16.2","213.67","16","60.03","30"
"07/08/12 18:21:14","429620.1827","13.3","213.9","18","60.03","30"
"07/08/12 18:26:15","429620.184","28.9","213.22","44","60.03","30"
"07/08/12 18:31:15","429620.1857","21.2","214.09","18","60.07","30"
"07/08/12 18:36:15","429620.1873","20.0","214.78","16","60.03","29"
"07/08/12 18:41:15","429620.1885","13.4","214.1","43","60.03","29"
"07/08/12 18:46:15","429620.1892","0.0","214.04","0","60.03","28"
"07/08/12 18:51:14","429620.1898","3.3","213.57","0","60.03","28"
"07/08/12 18:56:14","429620.1902","15.1","213.34","0","60.03","27"
"07/08/12 19:01:15","429620.1907","12.4","214.27","226","60.0","27"
"07/08/12 19:06:14","429620.1911","11.6","213.93","21","60.0","27"
"07/08/12 19:11:14","429620.1914","0.0","213.58","0","60.0","26"
"07/08/12 19:16:14","429620.1918","0.0","213.47","259","60.03","26"
"07/08/12 19:21:14","429620.1922","13.7","212.83","10","60.03","26"
"07/08/12 19:26:15","429620.1925","11.6","212.73","20","60.03","26"
"07/08/12 19:31:14","429620.1929","13.4","212.95","28","60.0","26"
"07/08/12 19:36:14","429620.1932","0.0","213.46","0","60.03","25"
"07/08/12 19:41:15","429620.1935","0.0","213.78","0","60.03","25"
"07/09/12 05:51:14","429620.195","14.5","214.74","0","60.03","17"
"07/09/12 05:56:15","429620.1954","0.0","215.3","0","60.07","17"
"07/09/12 06:01:15","429620.1959","6.5","214.42","222","60.03","17"
"07/09/12 06:06:15","429620.1964","11.8","214.13","1","60.03","18"
"07/09/12 06:11:14","429620.197","13.7","214.2","27","60.03","18"
"07/09/12 06:16:14","429620.1975","7.5","215.6","0","60.0","18"
"07/09/12 06:21:15","429620.198","10.4","214.49","9","60.03","18"
"07/09/12 06:26:15","429620.1986","14.0","214.89","19","60.0","18"
"07/09/12 06:31:15","429620.1994","16.6","212.43","38","60.03","18"
"07/09/12 06:36:15","429620.2003","5.0","213.28","256","60.0","19"
"07/09/12 06:41:15","429620.2013","11.0","217.65","74","60.03","19"
"07/09/12 06:46:16","429620.2025","12.5","214.23","5","60.03","20"
"07/09/12 06:51:14","429620.2039","19.8","213.35","242","60.03","20"
"07/09/12 06:56:16","429620.2054","28.0","214.67","47","60.03","20"
"07/09/12 07:01:14","429620.2065","14.2","214.79","8","60.0","21"
"07/09/12 07:06:16","429620.208","20.7","214.87","21","60.0","22"
"07/09/12 07:11:14","429620.2102","27.7","213.66","223","60.03","22"
"07/09/12 07:16:15","429620.2126","30.2","214.68","74","60.0","22"
"07/09/12 07:21:15","429620.2155","44.3","214.07","141","60.0","23"
"07/09/12 07:26:15","429620.2186","49.4","214.64","207","60.07","23"
"07/09/12 07:31:16","429620.222","29.2","214.48","228","60.03","24"
"07/09/12 07:36:16","429620.2244","42.1","213.85","265","60.03","24"
"07/09/12 07:41:15","429620.2276","58.0","214.36","212","60.03","25"
"07/09/12 07:46:16","429620.2307","26.6","213.56","98","60.03","25"
"07/09/12 07:51:14","429620.2327","14.2","212.39","157","60.0","25"
"07/09/12 07:56:15","429620.236","53.9","213.96","239","60.03","26"
"07/09/12 08:01:14","429620.24","44.1","213.95","387","60.03","26"
"07/09/12 08:06:14","429620.2438","47.1","214.21","111","60.0","27"
"07/09/12 08:11:14","429620.2477","51.7","214.4","386","60.03","27"
"07/09/12 08:16:15","429620.2513","61.1","216.78","317","60.0","27"
"07/09/12 08:21:14","429620.2571","75.4","217.54","374","60.03","28"
"07/09/12 08:26:16","429620.263","77.7","217.19","379","60.0","29"
"07/09/12 08:31:15","429620.2691","80.4","216.36","394","60.0","30"
"07/09/12 08:36:15","429620.2756","86.7","216.87","424","60.03","30"
"07/09/12 08:41:15","429620.2828","96.6","215.52","463","60.0","31"
"07/09/12 08:46:14","429620.2881","48.8","213.67","174","60.0","32"
"07/09/12 08:51:16","429620.2923","95.4","215.13","462","60.03","32"
"07/09/12 08:56:15","429620.2998","103.0","215.6","497","60.03","32"
"07/09/12 09:01:15","429620.3077","83.1","216.9","408","60.03","33"
"07/09/12 09:06:14","429620.3153","103.7","218.36","493","60.0","33"
"07/09/12 09:11:16","429620.3235","104.0","216.07","499","60.03","34"
"07/09/12 09:16:15","429620.3316","105.1","216.41","499","60.03","34"
"07/09/12 09:21:15","429620.3398","106.0","216.28","506","60.0","35"
"07/09/12 09:26:14","429620.3481","108.3","215.9","514","60.03","35"
"07/09/12 09:31:15","429620.3566","108.8","216.45","515","60.03","36"
"07/09/12 09:36:14","429620.3651","110.5","217.32","526","60.03","37"
"07/09/12 09:41:15","429620.3739","113.0","216.83","536","60.03","37"
"07/09/12 09:46:15","429620.3828","115.6","217.16","545","60.03","38"
"07/09/12 09:51:14","429620.3919","117.9","217.14","555","60.0","38"
"07/09/12 09:56:14","429620.4011","120.4","217.0","565","60.03","38"
"07/09/12 10:01:14","429620.4107","123.9","216.35","581","60.07","38"
"07/09/12 10:06:15","429620.4203","124.8","216.56","588","60.03","39"
"07/09/12 10:11:14","429620.4301","127.6","217.66","593","60.03","39"
"07/09/12 10:16:14","429620.4405","145.0","218.56","671","60.0","39"
"07/09/12 10:21:16","429620.4479","58.0","214.34","275","60.03","38"
"07/09/12 10:26:15","429620.4513","24.5","214.99","25","60.03","37"
"07/09/12 10:31:16","429620.453","25.6","215.05","118","60.03","34"
"07/09/12 10:36:15","429620.4544","24.4","214.67","34","60.03","32"
"07/09/12 10:41:14","429620.4568","36.9","214.92","257","60.0","31"
"07/09/12 10:46:15","429620.4655","79.4","214.25","395","60.03","31"
"07/09/12 10:51:15","429620.4763","136.7","215.31","638","60.0","32"
"07/09/12 10:56:15","429620.4843","148.8","218.74","683","60.03","32"
"07/09/12 11:01:14","429620.4922","63.6","216.17","321","60.03","31"
"07/09/12 11:06:14","429620.5002","73.2","216.1","365","60.0","32"
"07/09/12 11:11:15","429620.506","57.1","214.88","169","60.03","31"
"07/09/12 11:16:15","429620.5087","33.3","214.44","203","60.03","30"
"07/09/12 11:21:14","429620.5116","71.0","215.81","379","60.0","29"
"07/09/12 11:26:14","429620.5219","190.5","218.53","863","60.03","30"
"07/09/12 11:31:15","429620.5346","168.1","218.34","769","60.03","31"
"07/09/12 11:36:16","429620.5477","172.3","217.06","791","60.0","32"
"07/09/12 11:41:14","429620.556","47.4","213.95","129","60.03","32"
"07/09/12 11:46:15","429620.5602","106.1","215.83","508","60.0","32"
"07/09/12 11:51:15","429620.5664","81.0","214.07","402","60.03","31"
"07/09/12 11:56:15","429620.5769","92.0","216.01","446","60.03","32"
"07/09/12 12:01:16","429620.5832","79.4","215.02","392","60.03","32"
"07/09/12 12:06:14","429620.5908","189.5","218.07","862","60.03","32"
"07/09/12 12:11:14","429620.6041","97.4","215.84","468","60.03","34"
"07/09/12 12:16:15","429620.6167","163.6","216.91","752","60.0","35"
"07/09/12 12:21:14","429620.6292","168.7","217.05","774","60.0","36"
"07/09/12 12:26:14","429620.6413","167.8","216.08","774","60.03","37"